1487865600.21,8685,11.0,72180.0,-4.65,-23.03,-22.07,0,*61
1487865601.43,8686,11.0,72168.0,-4.63,-22.97,-22.07,0,*68
1487865602.7,8687,11.0,72128.0,-4.63,-23.03,-22.17,0,*64
1487865603.91,8688,11.0,72178.8,-4.61,-22.97,-22.03,0,*60
1487865605.14,8689,11.0,72180.0,-4.61,-23.09,-22.17,0,*62
1487865606.42,8690,11.0,72154.8,-4.63,-23.33,-22.47,0,*64
1487865607.66,8691,11.0,72164.8,-4.63,-23.49,-22.37,0,*6F
1487865608.88,8692,11.0,72094.8,-4.63,-23.43,-22.37,0,*66
1487865610.08,8693,11.0,72110.0,-4.61,-22.93,-22.03,0,*6E
1487865611.33,8694,11.0,72124.0,-4.63,-23.13,-22.17,0,*67
1487865612.56,8695,11.0,72182.3,-4.63,-23.43,-22.53,0,*63
1487865613.76,8696,11.0,72214.8,-4.61,-23.39,-22.57,0,*6B
1487865614.98,8697,11.0,72232.5,-4.63,-23.43,-22.53,0,*61
1487865616.21,8698,11.0,72232.5,-4.61,-23.39,-22.47,0,*64
1487865617.4,8699,11.0,72250.8,-4.61,-23.39,-22.63,0,*63
1487865618.65,8700,11.0,72226.5,-4.63,-23.49,-22.67,0,*63
1487865619.87,8701,11.0,72236.0,-4.61,-23.39,-22.47,0,*65
1487865621.12,8702,11.0,72154.5,-4.63,-23.49,-22.63,0,*65
1487865622.33,8703,11.0,72136.8,-4.61,-23.43,-22.57,0,*6B
1487865623.55,8704,11.0,72120.3,-4.63,-23.59,-22.67,0,*66
1487865624.79,8705,11.0,72128.0,-4.63,-23.49,-22.67,0,*66
1487865625.99,8706,11.0,72140.8,-4.61,-23.39,-22.57,0,*63
1487865627.21,8707,11.0,72170.0,-4.61,-23.39,-22.47,0,*63
1487865628.46,8708,11.0,72178.8,-4.63,-23.49,-22.53,0,*6C
1487865629.7,8709,11.0,72240.5,-4.63,-23.49,-22.67,0,*6A
1487865630.93,8710,11.0,72270.5,-4.63,-23.43,-22.67,0,*68
1487865632.15,8711,11.0,72286.5,-4.63,-23.43,-22.63,0,*6D
1487865633.43,8712,11.0,72198.5,-4.63,-23.19,-22.31,0,*66
1487865634.67,8713,11.0,72176.5,-4.63,-23.29,-22.37,0,*62
1487865635.94,8714,11.0,72154.3,-4.63,-23.49,-22.77,0,*67
1487865637.19,8715,11.0,72122.3,-4.63,-23.65,-22.83,0,*63
1487865638.43,8716,11.0,72116.0,-4.63,-23.65,-22.83,0,*60
1487865639.68,8717,11.0,72168.5,-4.65,-23.49,-22.77,0,*62
1487865640.89,8718,11.0,72204.5,-4.65,-23.43,-22.67,0,*66
1487865642.14,8719,11.0,72248.5,-4.65,-23.49,-22.77,0,*6C
1487865643.36,8720,11.0,72218.8,-4.65,-23.33,-22.67,0,*6A
1487865644.61,8721,11.0,72200.8,-4.65,-23.49,-22.77,0,*67
1487865645.87,8722,11.0,72208.8,-4.65,-23.49,-22.77,0,*64
1487865647.1,8723,11.0,72178.8,-4.67,-23.09,-22.27,0,*66
1487865648.32,8724,11.0,72156.3,-4.65,-22.63,-21.87,0,*67
1487865649.55,8725,11.0,72168.5,-4.65,-22.21,-21.43,0,*68
1487865650.79,8726,11.0,72138.0,-4.63,-22.63,-21.87,0,*63
1487865652.02,8727,11.0,72164.0,-4.61,-22.57,-21.83,0,*63
1487865653.27,8728,11.0,72178.0,-4.61,-22.17,-21.53,0,*65
1487865654.5,8729,11.0,72162.8,-4.61,-22.63,-21.83,0,*6A
1487865655.76,8730,11.0,72176.8,-4.59,-22.73,-21.97,0,*6D
1487865656.98,8731,11.0,72200.5,-4.59,-22.63,-21.93,0,*69
1487865658.22,8732,11.0,72210.5,-4.59,-22.73,-22.03,0,*61
1487865659.48,8733,11.0,72220.5,-4.59,-22.73,-21.97,0,*6E
1487865660.68,8734,11.0,72212.3,-4.57,-22.83,-22.11,0,*65
1487865661.9,8735,11.0,72170.3,-4.57,-23.19,-22.53,0,*60
1487865663.12,8736,11.0,72206.5,-4.59,-23.13,-22.57,0,*63
1487865664.36,8737,11.0,72204.0,-4.59,-23.39,-22.73,0,*6C
1487865665.59,8738,11.0,72206.5,-4.57,-23.19,-22.53,0,*6D
1487865666.84,8739,11.0,72218.8,-4.59,-23.13,-22.47,0,*6D
1487865668.06,8740,11.0,72224.5,-4.57,-23.23,-22.67,0,*6C
1487865669.27,8741,11.0,72230.8,-4.57,-23.39,-22.73,0,*63
1487865670.51,8742,11.0,72230.3,-4.59,-23.39,-22.77,0,*6A
1487865671.75,8743,11.0,72222.3,-4.59,-23.39,-22.77,0,*6B
1487865672.97,8744,11.0,72212.8,-4.61,-23.39,-22.73,0,*63
1487865674.2,8745,11.0,72190.8,-4.61,-23.43,-22.77,0,*6B
1487865675.4,8746,11.0,72188.5,-4.61,-23.59,-22.97,0,*6D
1487865676.61,8747,11.0,72194.8,-4.61,-23.59,-22.97,0,*6C
1487865677.81,8748,11.0,72196.8,-4.61,-23.59,-22.87,0,*62
1487865679.06,8749,11.0,72192.5,-4.63,-23.75,-23.03,0,*62
1487865680.3,8750,11.0,72196.0,-4.63,-23.65,-23.13,0,*6A
1487865681.53,8751,11.0,72212.8,-4.63,-23.75,-23.13,0,*6A
1487865682.75,8752,11.0,72202.0,-4.61,-23.69,-23.09,0,*6D
1487865683.98,8753,11.0,72182.8,-4.63,-23.79,-23.13,0,*64
1487865685.22,8754,11.0,72156.3,-4.63,-23.89,-23.33,0,*6E
1487865686.47,8755,11.0,72174.0,-4.63,-23.79,-23.19,0,*68
1487865687.72,8756,11.0,72210.3,-4.63,-23.75,-23.19,0,*67
1487865688.94,8757,11.0,72226.3,-4.63,-23.59,-23.13,0,*62
1487865690.17,8758,11.0,72222.5,-4.65,-23.79,-23.19,0,*63
1487865691.38,8759,11.0,72232.3,-4.65,-23.75,-23.13,0,*64
1487865692.61,8760,11.0,72212.3,-4.65,-23.59,-23.03,0,*61
1487865693.86,8761,11.0,72196.0,-4.65,-23.49,-23.03,0,*61
1487865695.14,8762,11.0,72196.0,-4.67,-23.85,-23.23,0,*62
1487865696.37,8763,11.0,72196.5,-4.65,-23.65,-23.09,0,*67
1487865697.64,8764,11.0,72210.8,-4.67,-23.69,-23.23,0,*66
1487865698.92,8765,11.0,72208.0,-4.67,-23.69,-23.23,0,*67
1487865700.19,8766,11.0,72232.3,-4.67,-23.69,-23.23,0,*64
1487865701.47,8767,11.0,72224.0,-4.67,-23.69,-23.23,0,*65
1487865702.69,8768,11.0,72232.0,-4.67,-23.79,-23.39,0,*60
1487865703.97,8769,11.0,72252.8,-4.67,-23.85,-23.33,0,*68
1487865705.22,8770,11.0,72242.5,-4.69,-23.79,-23.23,0,*6C
1487865706.47,8771,11.0,72250.0,-4.69,-23.79,-23.33,0,*6C
1487865707.71,8772,11.0,72242.3,-4.69,-23.79,-23.33,0,*6F
1487865708.94,8773,11.0,72250.3,-4.71,-23.85,-23.43,0,*63
1487865710.18,8774,11.0,72254.5,-4.71,-23.85,-23.29,0,*68
1487865711.45,8775,11.0,72244.0,-4.73,-23.99,-23.53,0,*6B
1487865712.68,8776,11.0,72244.0,-4.71,-23.85,-23.43,0,*66
1487865713.94,8777,11.0,72242.3,-4.73,-23.69,-23.29,0,*6B
1487865715.19,8778,11.0,72234.3,-4.73,-24.05,-23.53,0,*64
1487865716.43,8779,11.0,72226.0,-4.77,-24.05,-23.43,0,*60
1487865717.67,8780,11.0,72220.0,-4.73,-23.89,-23.53,0,*60
1487865718.92,8781,11.0,72214.5,-4.73,-23.89,-23.53,0,*61
1487865720.17,8782,11.0,72242.5,-4.77,-23.89,-23.49,0,*6D
1487865721.42,8783,11.0,72246.8,-4.77,-23.75,-23.29,0,*69
1487865722.66,8784,11.0,72212.5,-4.77,-23.59,-23.09,0,*62
1487865723.91,8785,11.0,72212.3,-4.77,-23.33,-22.93,0,*6D
1487865725.17,8786,11.0,72228.8,-4.77,-23.19,-22.67,0,*6D
1487865726.4,8787,11.0,72244.8,-4.77,-23.13,-22.63,0,*62
1487865727.63,8788,11.0,72234.8,-4.73,-23.43,-22.87,0,*66
1487865728.86,8789,11.0,72242.5,-4.73,-23.43,-22.87,0,*67
1487865730.08,8790,11.0,72230.8,-4.73,-23.43,-22.87,0,*6F
1487865731.32,8791,11.0,72228.5,-4.73,-23.43,-22.93,0,*6B
1487865732.57,8792,11.0,72238.5,-4.77,-23.49,-22.97,0,*62
1487865733.8,8793,11.0,72248.8,-4.73,-23.39,-22.93,0,*64
1487865735.07,8794,11.0,72234.3,-4.73,-23.29,-22.73,0,*6C
1487865736.32,8795,11.0,72220.8,-4.77,-23.49,-22.97,0,*65
1487865737.58,8796,11.0,72208.0,-4.77,-23.29,-22.83,0,*65
1487865738.83,8797,11.0,72220.3,-4.77,-23.19,-22.57,0,*6E
1487865740.06,8798,11.0,72246.5,-4.73,-23.13,-22.63,0,*68
1487865741.33,8799,11.0,72252.3,-4.73,-23.29,-22.73,0,*61
1487865742.58,8800,11.0,72256.0,-4.73,-23.29,-22.67,0,*6B
1487865743.85,8801,11.0,72272.3,-4.73,-23.23,-22.77,0,*61
1487865745.12,8802,11.0,72226.5,-4.73,-23.23,-22.73,0,*66
1487865746.38,8803,11.0,72196.0,-4.73,-22.93,-22.47,0,*6A
1487865747.61,8804,11.0,72178.5,-4.73,-22.93,-22.41,0,*6B
1487865748.86,8805,11.0,72196.3,-4.73,-23.03,-22.63,0,*62
1487865750.12,8806,11.0,72200.0,-4.77,-23.43,-22.77,0,*64
1487865751.39,8807,11.0,72202.0,-4.73,-23.23,-22.73,0,*63
1487865752.66,8808,11.0,72204.8,-4.73,-23.23,-22.73,0,*6C
1487865753.88,8809,11.0,72190.5,-4.71,-23.03,-22.57,0,*6B
1487865755.12,8810,11.0,72186.0,-4.71,-23.23,-22.73,0,*67
1487865756.31,8811,11.0,72174.0,-4.71,-23.39,-22.93,0,*63
1487865757.56,8812,11.0,72240.0,-4.71,-23.53,-23.03,0,*64
1487865758.81,8813,11.0,72224.8,-4.73,-23.29,-22.87,0,*67
1487865760.06,8814,11.0,72244.3,-4.73,-23.29,-22.93,0,*65
1487865761.34,8815,11.0,72254.3,-4.73,-23.53,-23.03,0,*61
1487865762.57,8816,11.0,72260.0,-4.73,-23.13,-22.57,0,*66
1487865763.8,8817,11.0,72216.8,-4.77,-23.13,-22.67,0,*60
1487865765.05,8818,11.0,72178.3,-4.73,-23.29,-22.87,0,*6C
1487865766.26,8819,11.0,72208.0,-4.73,-23.39,-22.87,0,*6C
1487865767.53,8820,11.0,72212.8,-4.73,-23.23,-22.73,0,*66
1487865768.78,8821,11.0,72210.5,-4.73,-23.23,-22.87,0,*6C
1487865769.98,8822,11.0,72172.3,-4.71,-23.43,-22.87,0,*6B
1487865771.26,8823,11.0,72168.0,-4.77,-23.49,-23.03,0,*6B
1487865772.45,8824,11.0,72206.0,-4.71,-23.39,-22.93,0,*65
1487865773.66,8825,11.0,72164.0,-4.71,-23.43,-22.93,0,*69
1487865774.9,8826,11.0,72192.5,-4.71,-23.29,-22.77,0,*6C
1487865776.12,8827,11.0,72174.3,-4.71,-23.29,-22.87,0,*62
1487865777.34,8828,11.0,72226.0,-4.71,-23.03,-22.57,0,*68
1487865778.57,8829,11.0,72190.3,-4.77,-22.97,-22.53,0,*67
1487865779.8,8830,11.0,72230.5,-4.73,-22.93,-22.57,0,*6B
1487865781.05,8831,11.0,72224.0,-4.73,-22.77,-22.41,0,*67
1487865782.3,8832,11.0,72220.0,-4.73,-23.03,-22.57,0,*61
1487865783.55,8833,11.0,72212.8,-4.73,-23.09,-22.73,0,*6C
1487865784.78,8834,11.0,72214.5,-4.73,-23.09,-22.63,0,*6A
1487865786.03,8835,11.0,72198.0,-4.73,-23.23,-22.87,0,*69
1487865787.25,8836,11.0,72212.8,-4.71,-23.39,-23.03,0,*6E
1487865788.44,8837,11.0,72200.3,-4.71,-23.39,-22.87,0,*62
1487865789.66,8838,11.0,72184.5,-4.71,-23.09,-22.77,0,*61
1487865790.89,8839,11.0,72200.0,-4.73,-22.93,-22.63,0,*65
1487865792.12,8840,11.0,72194.0,-4.73,-23.09,-22.87,0,*63
1487865793.34,8841,11.0,72190.0,-4.71,-23.29,-22.93,0,*67
1487865794.57,8842,11.0,72202.8,-4.71,-23.09,-22.77,0,*6C
1487865795.79,8843,11.0,72152.8,-4.71,-23.23,-22.87,0,*6A
1487865796.98,8844,11.0,72204.0,-4.71,-23.13,-22.87,0,*6E
1487865798.17,8845,11.0,72234.8,-4.71,-23.13,-22.87,0,*6F
1487865799.42,8846,11.0,72188.3,-4.71,-23.29,-23.03,0,*68
1487865800.62,8847,11.0,72200.5,-4.71,-23.13,-22.87,0,*6D
1487865801.81,8848,11.0,72182.0,-4.71,-23.13,-22.87,0,*62
1487865803.07,8849,11.0,72172.3,-4.73,-22.93,-22.77,0,*67
1487865804.31,8850,11.0,72202.3,-4.69,-22.97,-22.73,0,*64
1487865805.56,8851,11.0,72190.8,-4.71,-23.03,-22.77,0,*64
1487865806.78,8852,11.0,72170.0,-4.71,-22.93,-22.73,0,*6B
1487865808.03,8853,11.0,72158.0,-4.71,-23.03,-22.77,0,*66
1487865809.25,8854,11.0,72182.5,-4.69,-22.57,-22.37,0,*6C
1487865810.49,8855,11.0,72170.5,-4.69,-22.73,-22.53,0,*69
1487865811.74,8856,11.0,72144.5,-4.71,-23.03,-22.77,0,*63
1487865812.97,8857,11.0,72164.5,-4.71,-22.77,-22.63,0,*65
1487865814.19,8858,11.0,72138.0,-4.69,-22.57,-22.37,0,*60
1487865815.44,8859,11.0,72114.5,-4.69,-23.03,-22.83,0,*6E
1487865816.69,8860,11.0,72106.0,-4.69,-23.19,-22.83,0,*6F
1487865817.93,8861,11.0,72200.3,-4.69,-23.03,-22.83,0,*65
1487865819.16,8862,11.0,72172.3,-4.71,-22.93,-22.77,0,*6C
1487865820.38,8863,11.0,72170.8,-4.69,-23.09,-22.83,0,*6D
1487865821.58,8864,11.0,72142.3,-4.71,-23.13,-22.93,0,*69
1487865822.83,8865,11.0,72124.3,-4.69,-23.23,-22.87,0,*67
1487865824.1,8866,11.0,72188.5,-4.69,-23.33,-23.19,0,*63
1487865825.38,8867,11.0,72250.8,-4.69,-23.33,-23.23,0,*6B
1487865826.62,8868,11.0,72270.5,-4.69,-23.19,-22.87,0,*63
1487865827.87,8869,11.0,72234.5,-4.71,-23.53,-23.23,0,*6A
1487865829.15,8870,11.0,72230.5,-4.69,-23.53,-23.33,0,*6A
1487865830.37,8871,11.0,72220.5,-4.71,-23.75,-23.53,0,*60
1487865831.64,8872,11.0,72202.5,-4.69,-23.49,-23.19,0,*6B
1487865832.88,8873,11.0,72200.5,-4.71,-23.69,-23.53,0,*6F
1487865834.07,8874,11.0,72212.8,-4.71,-23.89,-23.75,0,*62
1487865835.32,8875,11.0,72216.5,-4.69,-23.79,-23.65,0,*64
1487865836.53,8876,11.0,72242.5,-4.71,-23.89,-23.69,0,*6D
1487865837.78,8877,11.0,72246.8,-4.73,-23.75,-23.53,0,*64
1487865838.98,8878,11.0,72232.3,-4.71,-23.43,-23.13,0,*68
1487865840.21,8879,11.0,72214.0,-4.73,-23.59,-23.39,0,*68
1487865841.43,8880,11.0,72196.5,-4.73,-23.79,-23.59,0,*6A
1487865842.68,8881,11.0,72190.8,-4.73,-23.89,-23.69,0,*67
1487865843.92,8882,11.0,72196.3,-4.73,-23.85,-23.59,0,*6B
1487865845.18,8883,11.0,72208.3,-4.77,-23.75,-23.49,0,*60
1487865846.42,8884,11.0,72202.8,-4.77,-23.75,-23.43,0,*6D
1487865847.66,8885,11.0,72206.0,-4.73,-23.69,-23.39,0,*68
1487865848.91,8886,11.0,72236.5,-4.77,-23.95,-23.59,0,*6A
1487865850.14,8887,11.0,72220.3,-4.77,-23.79,-23.59,0,*69
1487865851.36,8888,11.0,72194.5,-4.77,-23.89,-23.59,0,*69
1487865852.6,8889,11.0,72192.5,-4.77,-24.05,-23.75,0,*65
1487865853.84,8890,11.0,72220.8,-4.77,-24.11,-23.89,0,*6B
1487865855.12,8891,11.0,72196.5,-4.77,-23.95,-23.65,0,*63
1487865856.36,8892,11.0,72156.8,-4.79,-23.99,-23.69,0,*6E
1487865857.61,8893,11.0,72144.8,-4.79,-23.99,-23.69,0,*6F
1487865858.83,8894,11.0,72148.3,-4.79,-23.99,-23.79,0,*69
1487865860.08,8895,11.0,72166.5,-4.79,-23.95,-23.69,0,*65
1487865861.32,8896,11.0,72134.0,-4.79,-23.69,-23.49,0,*67
1487865862.56,8897,11.0,72138.8,-4.79,-23.85,-23.53,0,*6F
1487865863.81,8898,11.0,72156.5,-4.79,-23.99,-23.69,0,*64
1487865865.05,8899,11.0,72110.5,-4.79,-24.11,-23.65,0,*6E
1487865866.32,8900,11.0,72112.5,-4.81,-23.95,-23.65,0,*63
1487865867.57,8901,11.0,72088.5,-4.81,-24.11,-23.79,0,*64
1487865868.85,8902,10.94,72124.5,-4.81,-24.11,-23.85,0,*64
1487865870.13,8903,11.0,72146.8,-4.81,-23.99,-23.69,0,*60
1487865871.37,8904,11.0,72148.5,-4.81,-24.11,-23.79,0,*61
1487865872.61,8905,11.0,72168.3,-4.79,-24.15,-23.95,0,*61
1487865873.89,8906,11.0,72162.3,-4.81,-24.11,-23.69,0,*62
1487865875.12,8907,11.0,72194.5,-4.83,-24.21,-23.89,0,*6C
1487865876.34,8908,11.0,72226.0,-4.83,-24.15,-23.75,0,*67
1487865877.61,8909,11.0,72242.3,-4.81,-23.95,-23.65,0,*6A
1487865878.89,8910,11.0,72222.3,-4.81,-23.99,-23.65,0,*6E
1487865880.09,8911,11.0,72220.3,-4.83,-24.05,-23.75,0,*6E
1487865881.34,8912,11.0,72218.3,-4.81,-24.15,-23.79,0,*62
1487865882.57,8913,11.0,72226.8,-4.83,-24.21,-23.89,0,*69
1487865883.79,8914,11.0,72224.3,-4.83,-24.05,-23.69,0,*66
1487865885.0,8915,11.0,72222.0,-4.83,-24.05,-23.75,0,*6A
1487865886.25,8916,11.0,72230.8,-4.85,-23.99,-23.59,0,*63
1487865887.52,8917,11.0,72228.3,-4.85,-23.99,-23.53,0,*68
1487865888.77,8918,11.0,72242.3,-4.85,-23.99,-23.59,0,*6D
1487865890.01,8919,11.0,72246.3,-4.85,-24.05,-23.75,0,*60
1487865891.23,8920,11.0,72246.8,-4.83,-24.15,-23.75,0,*6D
1487865892.43,8921,11.0,72236.5,-4.83,-24.05,-23.59,0,*63
1487865893.72,8922,11.0,72202.3,-4.85,-24.21,-23.85,0,*61
1487865894.95,8923,11.0,72206.8,-4.83,-24.15,-23.75,0,*6E
1487865896.21,8924,11.0,72222.3,-4.83,-24.21,-23.85,0,*61
1487865897.44,8925,11.0,72222.8,-4.83,-24.25,-23.75,0,*6B
1487865898.7,8926,11.0,72204.5,-4.85,-24.21,-23.75,0,*6A
1487865899.95,8927,11.0,72238.0,-4.85,-24.15,-23.75,0,*6C
1487865901.18,8928,11.0,72228.8,-4.89,-24.05,-23.59,0,*60
1487865902.43,8929,11.0,72228.5,-4.87,-24.11,-23.65,0,*65
1487865903.65,8930,11.0,72218.3,-4.87,-24.11,-23.59,0,*62
1487865904.86,8931,11.0,72224.0,-4.87,-24.05,-23.59,0,*66
1487865906.06,8932,11.0,72210.3,-4.87,-23.89,-23.43,0,*6D
1487865907.29,8933,11.0,72210.5,-4.87,-23.65,-23.09,0,*60
1487865908.52,8934,11.0,72198.3,-4.87,-23.65,-23.09,0,*67
1487865909.76,8935,11.0,72160.0,-4.87,-23.75,-23.23,0,*6F
1487865910.99,8936,11.0,72146.3,-4.85,-23.59,-22.87,0,*6F
1487865912.21,8937,11.0,72146.0,-4.85,-23.39,-22.87,0,*68
1487865913.48,8938,11.0,72134.5,-4.85,-23.69,-23.03,0,*6F
1487865914.73,8939,11.0,72158.0,-4.85,-23.69,-23.09,0,*64
1487865915.97,8940,10.94,72164.3,-4.85,-23.59,-23.09,0,*69
1487865917.2,8941,11.0,72170.8,-4.85,-23.59,-23.09,0,*68
1487865918.45,8942,10.94,72152.3,-4.85,-23.69,-23.09,0,*68
1487865919.66,8943,11.0,72190.3,-4.83,-23.75,-23.09,0,*62
1487865920.91,8944,11.0,72200.3,-4.85,-23.69,-23.09,0,*6E
1487865922.14,8945,10.94,72156.3,-4.83,-23.43,-23.03,0,*6B
1487865923.39,8946,11.0,72170.0,-4.83,-23.85,-23.29,0,*6A
1487865924.64,8947,11.0,72160.0,-4.85,-23.69,-23.09,0,*6D
1487865925.86,8948,11.0,72154.8,-4.83,-23.69,-23.09,0,*64
1487865927.09,8949,11.0,72156.8,-4.83,-23.75,-23.29,0,*6A
1487865928.32,8950,11.0,72156.3,-4.83,-24.05,-23.53,0,*6F
1487865929.57,8951,11.0,72180.8,-4.83,-23.99,-23.53,0,*6C
1487865930.8,8952,10.94,72176.5,-4.85,-24.05,-23.43,0,*6A
1487865932.04,8953,11.0,72182.5,-4.83,-23.99,-23.43,0,*6F
1487865933.26,8954,11.0,72174.8,-4.83,-24.05,-23.53,0,*6B
1487865934.47,8955,11.0,72164.8,-4.83,-24.05,-23.43,0,*6B
1487865935.7,8956,11.0,72170.8,-4.83,-24.05,-23.53,0,*69
1487865936.95,8957,11.0,72174.3,-4.85,-24.05,-23.53,0,*6E
1487865938.18,8958,11.0,72186.5,-4.83,-23.99,-23.43,0,*64
1487865939.41,8959,10.94,72180.8,-4.83,-24.05,-23.53,0,*66
1487865940.65,8960,11.0,72186.3,-4.83,-24.15,-23.69,0,*64
1487865941.91,8961,10.94,72180.8,-4.85,-24.21,-23.59,0,*67
1487865943.14,8962,10.94,72186.5,-4.83,-24.21,-23.75,0,*6C
1487865944.38,8963,11.0,72190.0,-4.83,-24.25,-23.75,0,*69
1487865945.64,8964,11.0,72188.0,-4.85,-24.25,-23.75,0,*68
1487865946.87,8965,11.0,72190.0,-4.85,-24.35,-23.75,0,*68
1487865948.16,8966,11.0,72208.8,-4.85,-24.41,-23.85,0,*67
1487865949.43,8967,10.94,72206.0,-4.85,-24.21,-23.69,0,*62
1487865950.72,8968,11.0,72200.0,-4.85,-24.25,-23.69,0,*69
1487865951.99,8969,11.0,72206.0,-4.85,-24.15,-23.53,0,*62
1487865953.24,8970,11.0,72190.3,-4.85,-23.99,-23.59,0,*63
1487865954.44,8971,10.94,72182.3,-4.87,-24.05,-23.59,0,*62
1487865955.72,8972,11.0,72182.5,-4.89,-24.11,-23.65,0,*65
1487865956.97,8973,11.0,72182.5,-4.87,-24.11,-23.49,0,*64
1487865958.25,8974,11.0,72164.3,-4.89,-23.95,-23.49,0,*66
1487865959.5,8975,11.0,72176.8,-4.87,-23.95,-23.49,0,*69
1487865960.75,8976,11.0,72174.5,-4.87,-23.95,-23.49,0,*6A
1487865962.03,8977,11.0,72160.8,-4.89,-23.95,-23.33,0,*68
1487865963.24,8978,11.0,72168.5,-4.87,-23.89,-23.43,0,*63
1487865964.44,8979,11.0,72138.8,-4.87,-24.05,-23.59,0,*6A
1487865965.7,8980,10.94,72184.3,-4.89,-24.21,-23.59,0,*64
1487865966.98,8981,11.0,72212.0,-4.89,-24.21,-23.65,0,*6A
1487865968.2,8982,10.94,72184.0,-4.87,-24.05,-23.33,0,*62
1487865969.46,8983,11.0,72226.8,-4.89,-24.05,-23.33,0,*6D
1487865970.72,8984,11.0,72186.8,-4.89,-23.65,-22.93,0,*60
1487865971.92,8985,11.0,72146.0,-4.87,-23.59,-22.93,0,*60
1487865973.15,8986,11.0,72152.0,-4.87,-23.49,-22.83,0,*63
1487865974.38,8987,11.0,72124.8,-4.89,-23.79,-23.09,0,*6C
1487865975.59,8988,11.0,72124.5,-4.87,-23.79,-23.09,0,*6D
1487865976.8,8989,11.0,72126.0,-4.87,-23.75,-22.97,0,*66
1487865978.03,8990,11.0,72194.8,-4.85,-23.59,-22.87,0,*63
1487865979.26,8991,10.94,72168.3,-4.85,-23.59,-22.87,0,*62
1487865980.52,8992,11.0,72150.3,-4.85,-23.85,-23.09,0,*67
1487865981.77,8993,11.0,72166.3,-4.85,-23.59,-23.03,0,*6D
1487865983.05,8994,11.0,72134.0,-4.85,-23.85,-23.03,0,*6B
1487865984.29,8995,10.94,72154.5,-4.85,-23.75,-23.09,0,*6F
1487865985.54,8996,11.0,72162.5,-4.85,-23.69,-23.09,0,*61
1487865986.8,8997,11.0,72174.3,-4.85,-23.75,-23.19,0,*6C
1487865988.01,8998,10.94,72200.3,-4.83,-23.75,-23.09,0,*64
1487865989.27,8999,11.0,72186.8,-4.85,-23.89,-23.19,0,*61
1487865990.5,9000,11.0,72198.3,-4.85,-24.05,-23.43,0,*65
1487865991.77,9001,11.0,72192.8,-4.85,-24.15,-23.69,0,*6D
1487865993.05,9002,11.0,72186.5,-4.85,-24.21,-23.69,0,*69
1487865994.3,9003,11.0,72212.5,-4.85,-24.35,-23.69,0,*6D
1487865995.55,9004,10.94,72212.8,-4.85,-24.15,-23.59,0,*6B
1487865996.8,9005,11.0,72200.0,-4.85,-24.15,-23.59,0,*6A
1487865998.01,9006,11.0,72208.3,-4.87,-24.47,-23.79,0,*6E
1487865999.24,9007,10.94,72226.8,-4.89,-24.47,-23.79,0,*61
1487866000.5,9008,10.94,72246.0,-4.87,-24.25,-23.65,0,*69
1487866001.75,9009,11.0,72250.8,-4.89,-24.31,-23.65,0,*63
1487866003.04,9010,11.0,72232.5,-4.89,-24.25,-23.65,0,*6E
1487866004.3,9011,11.0,72234.0,-4.89,-24.25,-23.59,0,*60
1487866005.53,9012,10.94,72256.5,-4.87,-24.11,-23.43,0,*61
1487866006.78,9013,11.0,72240.0,-4.89,-24.05,-23.33,0,*6C
1487866008.04,9014,10.94,72248.5,-4.89,-23.89,-23.23,0,*69
1487866009.27,9015,11.0,72214.5,-4.89,-23.79,-23.13,0,*64
1487866010.48,9016,11.0,72206.8,-4.87,-23.59,-22.93,0,*62
1487866011.69,9017,11.0,72208.3,-4.87,-23.79,-23.09,0,*63
1487866012.89,9018,10.94,72176.3,-4.87,-23.75,-23.13,0,*6B
1487866014.1,9019,11.0,72154.3,-4.87,-23.89,-23.13,0,*69
1487866015.3,9020,11.0,72166.0,-4.87,-23.79,-22.97,0,*61
1487866016.53,9021,11.0,72218.3,-4.89,-23.79,-23.09,0,*68
1487866017.79,9022,11.0,72214.8,-4.87,-23.95,-23.33,0,*6E
1487866019.04,9023,11.0,72210.5,-4.87,-24.11,-23.49,0,*69
1487866020.25,9024,11.0,72230.8,-4.87,-24.05,-23.43,0,*61
1487866021.5,9025,11.0,72236.0,-4.87,-24.21,-23.49,0,*6C
1487866022.76,9026,11.0,72230.3,-4.87,-24.21,-23.33,0,*62
1487866024.02,9027,10.94,72230.5,-4.89,-24.21,-23.43,0,*6A
1487866025.28,9028,10.94,72212.3,-4.89,-24.05,-23.33,0,*64
1487866026.51,9029,11.0,72224.3,-4.87,-23.89,-23.23,0,*69
1487866027.74,9030,11.0,72228.3,-4.87,-24.11,-23.59,0,*6A
1487866028.99,9031,11.0,72214.8,-4.87,-24.21,-23.65,0,*67
1487866030.22,9032,11.0,72214.3,-4.87,-24.05,-23.49,0,*6C
1487866031.47,9033,11.0,72196.3,-4.89,-24.05,-23.49,0,*63
1487866032.73,9034,11.0,72188.8,-4.89,-24.05,-23.49,0,*64
1487866033.99,9035,11.0,72186.0,-4.89,-24.11,-23.43,0,*6A
1487866035.22,9036,11.0,72176.5,-4.87,-24.11,-23.43,0,*67
1487866036.45,9037,10.94,72168.3,-4.87,-24.31,-23.65,0,*60
1487866037.71,9038,10.94,72208.5,-4.89,-24.25,-23.59,0,*6B
1487866038.97,9039,10.94,72160.8,-4.89,-24.25,-23.75,0,*64
1487866040.25,9040,11.0,72166.8,-4.89,-24.25,-23.65,0,*6B
1487866041.51,9041,10.94,72224.8,-4.89,-24.25,-23.59,0,*65
1487866042.77,9042,10.94,72234.5,-4.87,-24.21,-23.49,0,*6D
1487866044.03,9043,10.94,72244.5,-4.89,-24.25,-23.75,0,*69
1487866045.27,9044,11.0,72234.8,-4.89,-24.31,-23.75,0,*6B
1487866046.53,9045,10.94,72236.8,-4.89,-24.25,-23.59,0,*61
1487866047.79,9046,11.0,72238.3,-4.89,-24.21,-23.59,0,*66
1487866049.04,9047,11.0,72264.3,-4.87,-24.21,-23.65,0,*66
1487866050.27,9048,10.94,72250.5,-4.87,-24.21,-23.59,0,*66
1487866051.52,9049,11.0,72204.3,-4.87,-24.11,-23.49,0,*65
1487866052.76,9050,11.0,72172.0,-4.89,-24.05,-23.43,0,*6C
1487866053.99,9051,11.0,72116.8,-4.89,-24.05,-23.43,0,*6D
1487866055.23,9052,10.94,72102.3,-4.87,-24.11,-23.43,0,*65
1487866056.48,9053,11.0,72116.5,-4.87,-24.25,-23.65,0,*67
1487866057.74,9054,11.0,72140.3,-4.87,-24.25,-23.65,0,*60
1487866058.97,9055,10.94,72174.0,-4.87,-24.21,-23.59,0,*6A
1487866060.2,9056,10.94,72172.5,-4.87,-24.21,-23.59,0,*69
1487866061.45,9057,11.0,72174.8,-4.89,-24.41,-23.89,0,*6D
1487866062.68,9058,10.94,72180.3,-4.89,-24.47,-23.79,0,*6B
1487866063.91,9059,10.94,72188.8,-4.87,-24.41,-23.79,0,*62
1487866065.17,9060,10.94,72200.3,-4.89,-24.47,-23.95,0,*62
1487866066.42,9061,10.94,72222.8,-4.89,-24.41,-23.89,0,*68
1487866067.68,9062,10.94,72256.8,-4.89,-24.41,-23.89,0,*6B
1487866068.93,9063,10.94,72252.5,-4.89,-24.41,-23.79,0,*65
1487866070.16,9064,10.94,72266.8,-4.91,-24.47,-23.95,0,*6F
1487866071.4,9065,10.94,72258.3,-4.91,-24.51,-23.85,0,*68
1487866072.6,9066,11.0,72258.3,-4.91,-24.51,-23.79,0,*68
1487866073.83,9067,11.0,72242.3,-4.91,-24.47,-23.69,0,*6F
1487866075.08,9068,10.94,72220.5,-4.93,-24.61,-23.95,0,*65
1487866076.33,9069,10.94,72186.0,-4.93,-24.77,-24.11,0,*68
1487866077.55,9070,10.94,72170.8,-4.91,-24.77,-24.11,0,*62
1487866078.83,9071,10.94,72174.3,-4.93,-24.67,-23.99,0,*67
1487866080.05,9072,10.94,72164.3,-4.91,-24.77,-23.99,0,*67
1487866081.31,9073,11.0,72176.3,-4.93,-24.51,-23.99,0,*60
1487866082.54,9074,11.0,72196.0,-4.93,-24.47,-23.79,0,*6E
1487866083.77,9075,11.0,72194.5,-4.93,-24.47,-23.79,0,*6F
1487866085.04,9076,10.94,72164.0,-4.93,-24.51,-23.85,0,*68
1487866086.27,9077,10.94,72128.3,-4.93,-24.47,-23.79,0,*6D
1487866087.5,9078,10.94,72158.8,-4.93,-24.47,-23.79,0,*62
1487866088.76,9079,10.94,72188.8,-4.93,-24.35,-23.69,0,*67
1487866089.99,9080,11.0,72184.0,-4.93,-24.47,-23.79,0,*65
1487866091.25,9081,10.94,72164.8,-4.93,-24.51,-23.85,0,*60
1487866092.51,9082,10.94,72152.8,-4.93,-24.47,-23.85,0,*64
1487866093.78,9083,10.94,72160.5,-4.93,-24.47,-23.85,0,*65
1487866095.04,9084,10.94,72160.3,-4.93,-24.51,-23.85,0,*65
1487866096.26,9085,10.94,72186.3,-4.95,-24.35,-23.69,0,*62
1487866097.49,9086,10.94,72176.3,-4.93,-24.35,-23.79,0,*66
1487866098.72,9087,10.94,72186.8,-4.93,-24.47,-23.79,0,*62
1487866099.97,9088,10.94,72166.0,-4.93,-24.61,-23.95,0,*6B
1487866101.23,9089,10.94,72158.8,-4.93,-24.51,-23.85,0,*68
1487866102.46,9090,11.0,72170.3,-4.95,-24.51,-23.69,0,*64
1487866103.69,9091,10.94,72164.3,-4.95,-24.41,-23.75,0,*69
1487866104.89,9092,11.0,72178.5,-4.95,-24.35,-23.59,0,*67
1487866106.13,9093,10.94,72190.3,-4.95,-24.15,-23.53,0,*6E
1487866107.41,9094,11.0,72216.8,-4.97,-24.15,-23.69,0,*62
1487866108.67,9095,10.94,72214.0,-4.97,-24.31,-23.85,0,*67
1487866109.9,9096,11.0,72184.5,-4.95,-24.21,-23.75,0,*68
1487866111.16,9097,10.94,72224.0,-4.97,-24.41,-23.89,0,*6E